Lid_Strength_Index
2 1 1 0 -1 -1 0 2 6 -0 -1 7 6 9 7 6 7 5 7 7 8 9 9 9 10 11 10 8 7 11 7 10 13 10 8 7 7 8 8 11 12 11 11 11
2 2 1 1 -0 -1 1 5 4 -1 1 10 10 7 7 6 7 7 7 8 7 7 9 11 10 9 8 8 9 11 9 10 13 11 8 8 9 8 7 7 8 11 12 10
2 2 1 1 -0 -1 0 4 7 4 3 5 8 9 8 8 5 6 6 7 7 8 9 8 11 11 9 8 8 7 8 10 11 12 11 9 10 9 8 8 10 10 10 9
2 2 1 1 0 -0 0 3 6 5 8 8 7 7 8 9 10 6 5 7 8 8 10 9 12 10 10 8 8 8 9 12 10 9 9 9 9 9 8 9 9 10 9 9
2 2 1 1 0 0 2 5 6 5 6 6 7 8 9 9 9 9 9 8 7 7 9 8 10 9 9 10 8 10 8 11 9 11 9 9 10 9 8 8 8 8 8 8
2 2 2 1 0 1 3 3 2 5 6 7 9 9 8 10 9 8 6 7 8 9 7 6 5 5 6 8 9 10 11 12 11 13 9 10 11 9 8 8 7 7 9 7
2 2 2 1 1 1 1 1 2 7 9 8 8 8 7 8 7 9 7 6 8 6 3 4 5 6 6 7 8 8 12 12 10 11 10 16 11 8 8 8 9 8 7 6
2 2 2 1 1 0 2 1 3 7 9 8 7 7 8 6 6 7 7 6 5 3 6 9 10 11 10 9 8 10 9 12 13 12 13 12 11 9 9 10 11 7 8 7
2 2 1 1 1 0 1 1 1 4 8 7 6 7 7 8 8 8 6 4 2 4 7 9 14 15 12 14 13 9 9 9 13 11 14 16 12 8 6 7 12 7 7 7
2 2 1 1 1 0 1 1 0 4 8 5 6 8 8 6 7 9 7 6 6 4 8 13 14 14 10 14 15 14 13 12 14 12 15 13 9 7 6 14 12 6 6 6
4 2 1 1 1 0 1 1 1 4 6 6 4 5 7 6 6 10 7 8 6 7 10 10 12 13 12 13 12 14 15 15 14 12 15 17 7 7 11 9 6 6 6 6
5 3 2 1 1 0 1 3 1 2 6 5 2 2 2 3 3 6 6 8 8 7 9 9 10 13 11 13 16 10 15 12 14 13 13 7 7 7 6 5 6 6 6 6
5 5 3 2 1 1 1 2 1 3 6 5 4 4 2 1 2 1 8 6 5 6 5 7 9 13 11 14 13 12 10 8 12 12 9 7 7 6 6 6 6 5 5 5
5 5 4 3 2 1 1 2 1 3 6 9 5 1 2 1 2 2 3 4 3 4 5 7 8 11 8 11 11 11 9 8 11 11 8 7 7 7 6 6 6 6 5 5
5 5 5 4 3 1 1 1 2 2 6 8 6 3 2 2 2 3 3 4 5 6 7 7 9 6 7 7 9 10 8 10 12 12 8 8 7 6 6 7 6 6 6 6
5 5 5 5 4 2 2 3 0 2 4 7 9 3 3 2 2 3 4 4 5 5 7 7 6 5 7 9 11 8 7 7 7 9 7 6 6 5 5 6 5 5 6 5
5 5 5 5 4 3 3 4 1 2 3 7 9 7 3 2 3 3 2 3 4 5 5 6 5 5 6 7 10 7 6 6 6 6 6 7 6 7 6 5 5 5 5 5
5 5 5 4 4 4 3 0 1 1 4 4 9 8 6 3 5 5 2 4 3 3 5 6 7 7 6 10 7 7 6 6 6 6 5 5 5 5 5 5 5 5 5 6
5 5 4 4 4 4 3 2 1 1 3 7 8 10 11 3 5 4 4 3 8 5 9 8 8 9 12 9 8 8 7 7 6 6 6 5 6 6 5 6 6 6 6 6
5 4 4 5 4 4 3 5 5 5 4 4 7 5 9 5 6 6 7 5 7 10 8 6 8 9 6 5 5 4 4 4 4 6 7 6 6 6 6 6 6 6 6 6
5 7 6 4 4 4 5 7 7 6 8 5 5 5 7 4 8 8 5 8 7 11 9 10 11 10 7 4 5 4 3 3 3 4 4 5 5 5 6 6 5 5 5 5
6 6 6 5 6 6 8 8 7 8 8 5 6 6 5 4 4 7 6 9 8 12 6 10 12 8 5 5 4 4 3 3 3 3 4 5 4 5 6 5 5 5 5 4
3 7 8 7 5 11 10 12 10 9 7 6 4 6 5 5 5 6 7 12 11 7 10 10 7 5 4 4 4 3 3 3 3 4 4 4 5 4 4 5 5 5 5 5
6 8 11 9 9 8 7 7 7 6 6 6 5 5 6 5 7 6 12 7 8 12 14 12 6 5 4 4 3 4 3 3 4 4 4 4 5 5 4 5 4 5 5 5
7 7 11 8 6 5 5 4 4 4 4 5 6 6 6 7 8 7 9 12 14 11 11 7 5 4 4 4 3 3 3 3 3 3 4 4 4 5 5 5 4 5 5 5
7 7 8 6 6 6 6 5 5 4 4 5 5 7 8 9 8 11 13 13 14 12 8 5 3 4 4 4 3 4 3 3 3 2 3 3 4 4 4 4 4 4 6 6
8 8 5 5 5 6 6 5 5 3 4 7 7 10 10 7 10 12 9 12 8 6 5 3 3 4 3 3 3 3 3 3 2 2 2 2 2 3 4 4 3 4 4 5